Weather History for KMIV - August, 2013

Change the Weather History Date:

Saturday, August 17, 2013

  Actual Average Record
Temperature  
Mean Temperature 67 °F -  
Max Temperature 80 °F 84 °F 98 °F (1997)
Min Temperature 55 °F 65 °F 52 °F (1979)
Cooling Degree Days 2    
Growing Degree Days 17 (Base 50)    
Moisture  
Dew Point 57 °F    
Average Humidity 74    
Maximum Humidity 97    
Minimum Humidity 44    
Precipitation  
Precipitation 0.01 in - - ()
Sea Level Pressure  
Sea Level Pressure 30.25 in    
Wind  
Wind Speed 3 mph (East)    
Max Wind Speed 12 mph    
Max Gust Speed -    
Averages and records for this station are not official NWS values.
T = Trace of Precipitation, MM = Missing Value Source: NWS Daily Summary

Daily Weather History Graph

Daily Weather History Graph

Search for Another Location

Airport or City:

Trip Planner

Search our weather history database for the weather conditions in past years. The results will help you decide how hot, cold, wet, or windy it might be!

Date:

Astronomy

Aug. 17, 2013 Rise Set
Actual Time 6:15 AM EDT 7:52 PM EDT
Civil Twilight 5:46 AM EDT 8:21 PM EDT
Nautical Twilight 5:12 AM EDT 8:55 PM EDT
Astronomical Twilight 4:35 AM EDT 9:32 PM EDT
Moon 5:05 PM EDT (8/17) 2:16 AM EDT (8/17)
Length of Visible Light 14h 34m
Length of Day
13h 37m
Waxing Gibbous, 84% of the Moon is Illuminated
Aug 17
Waxing Gibbous
Aug 20
Full
Aug 28
Last Quarter
Sep 5
New
Sep 12
First Quarter

Hourly Weather History & Observations

Time (EDT) Temp. Dew Point Humidity Pressure Visibility Wind Dir Wind Speed Gust Speed Precip Events Conditions
12:54 AM 57.0 °F 55.9 °F 96% 30.22 in - Calm Calm - N/A   Clear
1:54 AM 55.9 °F 55.0 °F 97% 30.22 in - Calm Calm - N/A   Clear
2:54 AM 57.0 °F 55.9 °F 96% 30.20 in - Calm Calm - N/A   Clear
3:54 AM 55.0 °F 54.0 °F 96% 30.21 in - Calm Calm - 0.01 in   Clear
4:54 AM 57.9 °F 55.9 °F 93% 30.22 in - North 3.5 mph - N/A   Clear
5:54 AM 57.9 °F 55.9 °F 93% 30.23 in - Calm Calm - N/A   Clear
6:54 AM 59.0 °F 55.9 °F 90% 30.25 in - Calm Calm - N/A   Unknown
7:54 AM 62.1 °F 59.0 °F 90% 30.27 in - Calm Calm - N/A   Clear
8:54 AM 66.9 °F 61.0 °F 81% 30.26 in - NNE 5.8 mph - N/A   Clear
9:54 AM 71.1 °F 57.9 °F 63% 30.27 in - NE 4.6 mph - N/A   Clear
10:54 AM 73.0 °F 57.0 °F 57% 30.27 in - ENE 6.9 mph - N/A   Clear
11:54 AM 75.0 °F 55.9 °F 51% 30.27 in - East 8.1 mph - N/A   Clear
12:54 PM 77.0 °F 55.0 °F 47% 30.27 in - East 9.2 mph - N/A   Clear
1:54 PM 79.0 °F 55.9 °F 45% 30.25 in - East 9.2 mph - N/A   Clear
2:54 PM 79.0 °F 55.0 °F 44% 30.24 in - SE 6.9 mph - N/A   Clear
3:54 PM 78.1 °F 55.0 °F 45% 30.23 in - East 8.1 mph - N/A   Clear
4:54 PM 79.0 °F 55.9 °F 45% 30.24 in - East 11.5 mph - N/A   Clear
5:54 PM 77.0 °F 57.9 °F 52% 30.24 in - ESE 10.4 mph - N/A   Clear
6:54 PM 72.0 °F 57.9 °F 61% 30.25 in - ESE 8.1 mph - N/A   Clear
7:54 PM 69.1 °F 59.0 °F 70% 30.25 in - ESE 3.5 mph - N/A   Clear
8:54 PM 66.0 °F 61.0 °F 84% 30.26 in - East 3.5 mph - N/A   Clear
9:54 PM 64.9 °F 61.0 °F 87% 30.27 in - Calm Calm - N/A   Clear
10:54 PM 63.0 °F 61.0 °F 93% 30.26 in - Calm Calm - N/A   Clear
11:54 PM 63.0 °F 61.0 °F 93% 30.25 in - Calm Calm - N/A   Clear